Regional Weather Roundup
Issued by NWS Sioux Falls, SD

Home | Current Version | Previous Version | Graphics & Text | Print | Product List | Glossary Off
Versions: 1 2 3 4 5 6 7 8 9 10 11 12 13 14 15 16 17 18 19 20 21 22 23 24 25 26 27 28 29 30 31 32 33 34 35 36 37 38 39 40 41 42 43 44 45 46 47 48 49 50

669
ASUS43 KFSD 131102
RWRFSD

WEATHER ROUNDUP FOR SE SOUTH DAKOTA/SW MINNESOTA/NW IOWA
NATIONAL WEATHER SERVICE SIOUX FALLS SD
500 AM CST SAT FEB 13 2016

NOTE: "FAIR" INDICATES FEW OR NO CLOUDS BELOW 12,000 FEET WITH NO
SIGNIFICANT WEATHER AND OR OBSTRUCTIONS TO VISIBILITY.


SDZ038>040-050-052>070-131200-
SOUTHEAST SOUTH DAKOTA

CITY           SKY/WX    TMP DP  RH WIND       PRES   REMARKS
BROOKINGS      CLOUDY    -4 -11  72 E3        30.52F
CHAMBERLAIN    NOT AVBL
HURON          CLOUDY     4  -5  66 SE10      30.51F WCI -11
MADISON        CLOUDY     0  -6  78 E8        30.50F WCI -15
MITCHELL       CLOUDY     8  -1  66 S14       30.54F WCI  -8
SIOUX FALLS    CLOUDY     0  -8  69 E7        30.55F WCI -13
WINNER         CLOUDY    18  11  74 SE21      30.35F WCI   1
YANKTON        CLOUDY     7  -2  66 E7        30.59R WCI  -5
$$

MNZ071-072-080-081-089-090-097-098-131200-
SOUTHWEST MINNESOTA

CITY           SKY/WX    TMP DP  RH WIND       PRES   REMARKS
FAIRMONT       CLOUDY    -4  -9  77 NW6       30.59R WCI -16
JACKSON        CLOUDY    -6 -13  71 CALM      30.57F
LUVERNE        CLOUDY     0  -8  71 NE3       30.57S
MARSHALL       CLOUDY    -4 -10  75 N5        30.60F WCI -15
MONTEVIDEO     CLOUDY    -8 -11  84 NW3       30.64S
PIPESTONE      CLOUDY    -2 -15  55 E6        30.51F WCI -14
REDWOOD FALLS  CLOUDY    -6 -10  83 W5        30.62S WCI -17
TRACY          CLOUDY    -3  -8  79 N5        30.59F WCI -13
WINDOM         CLOUDY    -8 -11  84 CALM      30.58R
WORTHINGTON    CLOUDY    -6  -9  84 N6        30.55F WCI -18
$$

IAZ001>003-012>014-020>022-031-032-NEZ013-014-SDZ071-131200-
NORTHWEST IOWA

CITY           SKY/WX    TMP DP  RH WIND       PRES   REMARKS
ESTHERVILLE    CLOUDY    -6 -10  83 NW7       30.58F WCI -20
SIOUX CITY     CLOUDY     5  -4  66 SE8       30.60F WCI  -8
SPENCER        CLOUDY    -5 -11  75 N6        30.59F WCI -18
STORM LAKE     CLOUDY     0  -6  78 NE10      30.56F WCI -17
$$

ABBREVIATIONS USED IN REMARKS
   TC - TEMPERATURE IN CELSIUS
  WCI - WIND CHILL INDEX
   HX - HEAT INDEX
  VSB - VISIBILITY





USA.gov is the U.S. government's official web portal to all federal, state and local government web resources and services.